Retour au catalogue

FENGYUN 1C DEB

ActifSSO
NORAD 30726·DEBRIS·🇨🇳 China

Lancé May 10, 1999 depuis Taiyuan Satellite Launch Center

Loading…

Prochains Passages (prochaines 24 heures)

TLE

FraisSource: Space-Track

Époque: Sep 14, 2026, 07:33 UTC

1 30726U 99025ASL 26257.31504639  .00000833  00000-0  48267-3 0  9990
2 30726  99.2670 272.2266 0078400 178.0274 303.5691 14.10236109998660

Suivez FENGYUN 1C DEB en temps réel avec AllMySat

Download on the App Store